Weather History for Osceola, WI

Change the Weather History Date:

Saturday, February 23, 2013

  Actual Average (KMSP) Record (KMSP)
Temperature  
Mean Temperature 21 °F 24 °F  
Max Temperature 32 °F 32 °F 59 °F (1958)
Min Temperature 10 °F 16 °F -25 °F (1889)
Degree Days  
Heating Degree Days 44 41  
Month to date heating degree days 1037  
Since 1 July heating degree days 5591  
Cooling Degree Days 0 0  
Month to date cooling degree days 0  
Year to date cooling degree days 0  
Moisture  
Dew Point 22 °F    
Average Humidity 86    
Maximum Humidity 100    
Minimum Humidity 69    
Precipitation  
Precipitation 0.00 in 0.03 in 0.63 in (1909)
Month to date precipitation 0.58  
Year to date precipitation 1.48  
Snow  
Snow 0.00 in 0.40 in 6.30 in (1909)
Month to date snowfall 6.2  
Since 1 July snowfall 40.2  
Snow Depth -    
Sea Level Pressure  
Sea Level Pressure 29.87 in    
Wind  
Wind Speed 4 mph (WSW)    
Max Wind Speed 8 mph    
Max Gust Speed -    
Visibility 8 miles    
Events Fog , Snow    
T = Trace of Precipitation, MM = Missing Value Source: NWS Daily Summary

Daily Weather History Graph

Daily Weather History Graph

Search for Another Location

Airport:

Trip Planner

Search our weather history database for the weather conditions in past years. The results will help you decide how hot, cold, wet, or windy it might be!

Date:

Astronomy

Feb. 23, 2013 Rise Set
Actual Time 6:58 AM CST 5:50 PM CST
Civil Twilight 6:28 AM CST 6:19 PM CST
Nautical Twilight 5:54 AM CST 6:54 PM CST
Astronomical Twilight 5:20 AM CST 7:28 PM CST
Moon 3:58 PM CST (2/23) 5:25 AM CST (2/23)
Length of Visible Light 11h 50m
Length of Day
10h 51m
Waxing Gibbous, 95% of the Moon is Illuminated
Feb 23
Waxing Gibbous
Feb 25
Full
Mar 4
Last Quarter
Mar 11
New
Mar 19
First Quarter

Hourly Weather History & Observations

Time (CST) Temp. Windchill Dew Point Humidity Pressure Visibility Wind Dir Wind Speed Gust Speed Precip Events Conditions
12:15 AM 17.6 °F 9.3 °F 15.8 °F 93% 29.86 in 5.0 mi SW 5.8 mph - N/A   Mostly Cloudy
12:35 AM 14.0 °F 6.5 °F 14.0 °F 100% 29.86 in 1.0 mi WSW 4.6 mph - N/A   Mostly Cloudy
12:55 AM 10.4 °F 4.0 °F 8.6 °F 92% 29.86 in 0.2 mi WSW 3.5 mph - N/A Fog Light Freezing Fog
1:15 AM 10.4 °F - 8.6 °F 92% 29.86 in 0.2 mi Calm Calm - N/A Fog Light Freezing Fog
1:35 AM 14.0 °F - 12.2 °F 93% 29.86 in 2.0 mi Calm Calm - N/A   Overcast
1:55 AM 19.4 °F 12.8 °F 19.4 °F 100% 29.86 in 10.0 mi West 4.6 mph - N/A   Overcast
2:15 AM 21.2 °F 16.4 °F 19.4 °F 93% 29.85 in 10.0 mi WSW 3.5 mph - N/A   Overcast
2:35 AM 21.2 °F - 19.4 °F 93% 29.85 in 7.0 mi Calm Calm - N/A   Overcast
2:55 AM 21.2 °F - 19.4 °F 93% 29.84 in 7.0 mi Calm Calm - N/A   Overcast
3:15 AM 21.2 °F 14.9 °F 19.4 °F 93% 29.84 in 7.0 mi WNW 4.6 mph - N/A   Overcast
3:35 AM 21.2 °F - 19.4 °F 93% 29.84 in 7.0 mi Calm Calm - N/A   Overcast
3:55 AM 21.2 °F 16.4 °F 21.2 °F 100% 29.84 in 7.0 mi West 3.5 mph - N/A   Overcast
4:15 AM 21.2 °F 16.4 °F 21.2 °F 100% 29.84 in 7.0 mi WSW 3.5 mph - N/A Snow Light Snow
4:35 AM 21.2 °F - 21.2 °F 100% 29.84 in 7.0 mi Calm Calm - N/A   Overcast
4:55 AM 21.2 °F 13.6 °F 21.2 °F 100% 29.84 in 7.0 mi SW 5.8 mph - N/A Snow Light Snow
5:15 AM 21.2 °F 16.4 °F 21.2 °F 100% 29.84 in 7.0 mi WSW 3.5 mph - N/A   Overcast
5:35 AM 21.2 °F 16.4 °F 21.2 °F 100% 29.84 in 7.0 mi SW 3.5 mph - N/A   Overcast
5:55 AM 21.2 °F - 21.2 °F 100% 29.85 in 7.0 mi Calm Calm - N/A   Overcast
6:15 AM 21.2 °F 16.4 °F 21.2 °F 100% 29.85 in 7.0 mi West 3.5 mph - N/A Snow Light Snow
6:35 AM 21.2 °F 16.4 °F 21.2 °F 100% 29.86 in 7.0 mi West 3.5 mph - N/A   Overcast
6:55 AM 23.0 °F 18.4 °F 21.2 °F 93% 29.86 in 7.0 mi WSW 3.5 mph - N/A   Overcast
7:15 AM 23.0 °F 17.0 °F 21.2 °F 93% 29.86 in 4.0 mi WSW 4.6 mph - N/A   Overcast
7:35 AM 23.0 °F 13.9 °F 21.2 °F 93% 29.86 in 2.0 mi WSW 8.1 mph - N/A Snow Light Snow
7:55 AM 23.0 °F 17.0 °F 23.0 °F 100% 29.86 in 2.0 mi West 4.6 mph - N/A   Overcast
8:15 AM 23.0 °F 15.8 °F 23.0 °F 100% 29.85 in 1.8 mi West 5.8 mph - N/A   Overcast
8:35 AM 23.0 °F 15.8 °F 23.0 °F 100% 29.86 in 1.5 mi West 5.8 mph - N/A   Overcast
8:55 AM 24.8 °F 19.1 °F 23.0 °F 93% 29.86 in 1.8 mi West 4.6 mph - N/A   Overcast
9:15 AM 24.8 °F 19.1 °F 23.0 °F 93% 29.86 in 2.0 mi West 4.6 mph - N/A   Overcast
9:35 AM 24.8 °F 19.1 °F 24.8 °F 100% 29.87 in 1.5 mi West 4.6 mph - N/A   Overcast
9:55 AM 26.6 °F 21.2 °F 24.8 °F 93% 29.87 in 2.0 mi West 4.6 mph - N/A   Overcast
10:15 AM 26.6 °F 20.0 °F 26.6 °F 100% 29.87 in 2.5 mi West 5.8 mph - N/A   Overcast
10:35 AM 26.6 °F 22.6 °F 26.6 °F 100% 29.87 in 5.0 mi WSW 3.5 mph - N/A   Overcast
10:55 AM 28.4 °F 23.3 °F 26.6 °F 93% 29.87 in 7.0 mi West 4.6 mph - N/A   Overcast
11:15 AM 28.4 °F 23.3 °F 26.6 °F 93% 29.87 in 10.0 mi West 4.6 mph - N/A   Overcast
11:35 AM 28.4 °F - 26.6 °F 93% 29.87 in 10.0 mi Calm Calm - N/A   Overcast
12:15 PM 30.2 °F 24.3 °F 24.8 °F 80% 29.86 in 10.0 mi West 5.8 mph - N/A   Overcast
12:35 PM 30.2 °F 25.4 °F 24.8 °F 80% 29.87 in 10.0 mi WNW 4.6 mph - N/A   Overcast
12:55 PM 32.0 °F 26.4 °F 26.6 °F 80% 29.86 in 10.0 mi WNW 5.8 mph - N/A   Overcast
1:15 PM 32.0 °F 26.4 °F 26.6 °F 80% 29.86 in 10.0 mi West 5.8 mph - N/A   Overcast
1:35 PM 32.0 °F 26.4 °F 24.8 °F 75% 29.86 in 10.0 mi WNW 5.8 mph - N/A   Overcast
1:55 PM 32.0 °F - 24.8 °F 75% 29.86 in 10.0 mi Calm Calm - N/A   Overcast
2:15 PM 32.0 °F 25.6 °F 23.0 °F 69% 29.85 in 10.0 mi West 6.9 mph - N/A   Mostly Cloudy
2:35 PM 32.0 °F 26.4 °F 23.0 °F 69% 29.85 in 10.0 mi NNW 5.8 mph - N/A   Overcast
2:55 PM 32.0 °F 27.5 °F 23.0 °F 69% 29.85 in 10.0 mi North 4.6 mph - N/A   Overcast
3:15 PM 32.0 °F - 23.0 °F 69% 29.86 in 10.0 mi Calm Calm - N/A   Overcast
3:35 PM 32.0 °F - 23.0 °F 69% 29.86 in 10.0 mi Calm Calm - N/A   Overcast
3:55 PM 32.0 °F 28.7 °F 23.0 °F 69% 29.86 in 10.0 mi WNW 3.5 mph - N/A   Overcast
4:15 PM 32.0 °F - 23.0 °F 69% 29.86 in 10.0 mi Calm Calm - N/A   Overcast
4:35 PM 32.0 °F - 23.0 °F 69% 29.87 in 10.0 mi Calm Calm - N/A   Overcast
4:55 PM 32.0 °F - 23.0 °F 69% 29.87 in 10.0 mi Calm Calm - N/A   Overcast
5:15 PM 32.0 °F - 23.0 °F 69% 29.87 in 10.0 mi Calm Calm - N/A   Overcast
5:35 PM 32.0 °F - 23.0 °F 69% 29.87 in 10.0 mi Calm Calm - N/A   Overcast
5:55 PM 32.0 °F - 24.8 °F 75% 29.88 in 10.0 mi Calm Calm - N/A   Overcast
6:15 PM 30.2 °F - 26.6 °F 86% 29.88 in 10.0 mi Calm Calm - N/A   Overcast
6:35 PM 30.2 °F - 24.8 °F 80% 29.89 in 10.0 mi Calm Calm - N/A   Overcast
6:55 PM 30.2 °F 25.4 °F 24.8 °F 80% 29.90 in 10.0 mi SW 4.6 mph - N/A   Overcast
7:15 PM 30.2 °F 23.4 °F 24.8 °F 80% 29.91 in 10.0 mi SSW 6.9 mph - N/A   Overcast
7:35 PM 30.2 °F 22.6 °F 24.8 °F 80% 29.91 in 10.0 mi SW 8.1 mph - N/A   Overcast
7:55 PM 30.2 °F 22.6 °F 24.8 °F 80% 29.92 in 10.0 mi SW 8.1 mph - N/A   Overcast
8:15 PM 28.4 °F 20.4 °F 24.8 °F 86% 29.92 in 10.0 mi SW 8.1 mph - N/A   Overcast
8:35 PM 28.4 °F 22.2 °F 23.0 °F 80% 29.92 in 10.0 mi SW 5.8 mph - N/A   Overcast
8:55 PM 28.4 °F 22.2 °F 23.0 °F 80% 29.92 in 10.0 mi SW 5.8 mph - N/A   Overcast
9:15 PM 28.4 °F 22.2 °F 23.0 °F 80% 29.93 in 10.0 mi SW 5.8 mph - N/A   Overcast
9:35 PM 28.4 °F 23.3 °F 23.0 °F 80% 29.93 in 10.0 mi SW 4.6 mph - N/A   Overcast
10:15 PM 28.4 °F 21.2 °F 23.0 °F 80% 29.94 in 10.0 mi SW 6.9 mph - N/A   Overcast
10:35 PM 26.6 °F 20.0 °F 23.0 °F 86% 29.95 in 10.0 mi SW 5.8 mph - N/A   Overcast
10:55 PM 26.6 °F 20.0 °F 21.2 °F 80% 29.95 in 10.0 mi SW 5.8 mph - N/A   Overcast
11:15 PM 26.6 °F 22.6 °F 21.2 °F 80% 29.96 in 10.0 mi WSW 3.5 mph - N/A   Overcast
11:35 PM 26.6 °F 22.6 °F 21.2 °F 80% 29.96 in 10.0 mi WSW 3.5 mph - N/A   Overcast
11:55 PM 26.6 °F - 21.2 °F 80% 29.96 in 10.0 mi Calm Calm - N/A   Overcast